www.pogodaiklimat.ru

Погода и климат >> Архив погоды >> Россия >> Якутия >> Шелагонцы


АРХИВ ПОГОДЫ в Шелагонцах

Время (UTC), дата Ветер
(напр.,м/с)
 
Видим.   Явления Облачность Т
(С)
Тd
(С)
f
(%)
Тe
(С)
Тes
(С)
Комфортность P
(гПа)
Po
(гПа)
Тmin
(С)
Tmax
(С)
R
(мм)
R24
(мм)
S
(см)
18 18.05 С 3 50 км ясно -3.4 -11.3 54 -8 -8 1024.0 994.0
21 18.05 штиль 0 50 км 3/0
[Ci fib]
-7.3 -10.7 77 -8 -7 1024.5 994.0
00 19.05 штиль 0 50 км 3/0
[Ci fib]
-2.4 -9.2 60 -3 +3 1024.1 994.2 -7.4 5
03 19.05 С 3 50 км 10/0
[Cs]
+1.1 -8.7 48 -3 +4 1022.6 993.0
06 19.05 З 3 50 км 8/0
[Ci]
+3.3 -8.9 40 0 +7 1020.5 991.3
09 19.05 З 3 50 км 8/0
[Ci fib]
+4.6 -8.5 38 +2 +5 1019.3 990.2
12 19.05 З 1 50 км 10/0
[As op]
+3.6 -8.0 42 +3 +3 1018.8 989.6 +5.4
15 19.05 З 1 50 км 10/0
[As op]
+1.4 -8.4 48 0 0 1018.1 988.7
18 19.05 штиль 0 50 км 8/0
[As trans]
+0.3 -6.4 61 -0 -0 1017.6 988.2
21 19.05 штиль 0 50 км ясно -3.0 -6.1 79 -4 -3 1017.8 988.0
00 20.05 штиль 0 50 км ясно +2.3 -3.7 65 +2 +9 1016.3 987.1 -5.5 2
03 20.05 ЮЗ 3 50 км 4/1 1000 м
[Cu hum Ac cast]
+5.3 -6.4 43 +3 +9 1014.7 985.8
06 20.05 штиль 0 50 км 6/3 1000 м
[Cu hum Ac lent Ci fib]
+7.4 -6.3 37 +7 +15 1012.8 984.2
09 20.05 штиль 0 50 км 4/3 1000 м
[Cu hum Ac lent]
+8.4 -4.6 39 +8 +12 1011.4 982.9
12 20.05 З 2 50 км 8/0
[Cc]
+8.8 -6.5 33 +8 +8 1010.6 982.2 +9.3
15 20.05 штиль 0 50 км 9/0
[Cc]
+2.0 -5.6 57 +2 +2 1010.8 981.7
18 20.05 штиль 0 50 км 10/10 600 м
[Sc]
+0.6 -2.7 79 -0 -0 1010.2 981.0
21 20.05 В 3 50 км 10/3 600 м
[Sc As op]
+4.5 -2.2 62 +1 +1 1007.9 979.2
00 21.05 В 5 50 км 10/3 600 м
[Sc Ac As]
+7.4 -4.2 44 +4 +5 1005.7 977.3 +0.1 2
03 21.05 Ю 7-14
{14}
50 км слаб. дождь 10/0
[As op]
+8.5 -3.2 44 +5 +5 1005.2 976.9
06 21.05 В 5
{14}
50 км {дождь} 9/4 600 м
[Cb cap Ac As]
+8.5 -0.1 55 +5 +7 1003.4 975.2
09 21.05 ЮВ 5 50 км 9/6 1000 м
[Sc Ac trans]
+13.5 -2.4 33 +12 +13 1000.9 973.3
12 21.05 В 5 50 км 8/8 600 м
[Cu Sc]
+12.4 -3.2 34 +11 +11 1000.0 972.3 +13.5 0.0
15 21.05 штиль 0 50 км 3/3 600 м
[Sc diur, vesp]
+5.0 0.0 70 +4 +4 999.9 971.5
18 21.05 штиль 0 50 км 6/0
[Ac cast Ci sp]
-1.5 -3.4 87 -3 -3 1000.4 971.2
21 21.05 штиль 0 50 км 9/0
[Ac As Ci fib]
-0.1 -1.6 90 -1 -1 998.7 969.7
00 22.05 В 3 50 км 6/0
[Ac cast Ci fib]
+10.4 +0.7 51 +9 +12 995.6 967.8 -2.3
03 22.05 В 3 50 км 8/0
[Ac As Ci fib]
+14.0 -2.3 32 +13 +18 991.5 964.2
06 22.05 В 3 50 км 10/0
[Ac As]
+16.2 -2.1 28 +16 +19 987.9 960.9
09 22.05 ЮВ 7-14
{14}
50 км 10/4 600 м
[Sc Ac As]
+16.2 -1.3 30 +15 +15 986.4 959.4
12 22.05 ЮВ 7-14
{14}
20 км слаб. дождь 10/10 300 м
[Frnb Ns]
+10.3 +5.3 71 +7 +7 988.7 961.1 +16.8 0.0
15 22.05 Ю 3 50 км {дождь} 10/0
[As op]
+4.8 +3.1 89 +1 +1 990.5 962.3
18 22.05 штиль 0 50 км 10/0
[As op]
+0.9 +0.1 94 -0 -0 993.3 964.6
21 22.05 штиль 0 50 км ясно +1.9 0.0 87 +1 +2 992.8 964.3
00 23.05 ЮВ 5 50 км ясно +8.7 +0.9 58 +6 +8 992.6 964.7 +0.9 2
03 23.05 Ю 5 50 км 4/0
[Ac lent]
+12.4 +1.1 46 +10 +14 993.1 965.6
06 23.05 ЮЗ 3 50 км 8/0
[Ac trans]
+13.7 +0.5 40 +13 +17 992.8 965.4
09 23.05 Ю 3 50 км в посл. час ливневой дождь 10/8 1000 м
[Cb cap Ci fib]
+8.4 +6.7 89 +6 +6 995.6 967.7
12 23.05 ЮЗ 3 20 км слаб. дождь 10/10 300 м
[Frnb Ns]
+7.4 +6.7 95 +4 +4 997.5 969.4 +14.9 4
15 23.05 Ю 3 20 км слаб. дождь 10/10 600 м
[Frnb Ns]
+4.4 +3.7 95 +1 +1 998.3 969.9
18 23.05 ЮЗ 5 20 км слаб. дождь 10/10 300 м
[Frnb Ns]
+6.4 +4.3 86 +2 +2 998.6 970.4
21 23.05 штиль 0 50 км {дождь} 10/4 600 м
[Sc Ac lent]
+4.2 +1.4 82 +3 +3 1000.1 971.6
00 24.05 З 1 50 км {дождь} 9/0
[Ac lent Cc]
+6.4 -0.1 63 +6 +9 1001.0 972.7 +3.9 0.4
03 24.05 СЗ 3 50 км 9/0
[Ac As]
+9.9 -0.4 49 +8 +11 1000.8 972.9
06 24.05 СЗ 3 50 км 9/3 1000 м
[Cu med, cong Ac trans]
+10.4 -1.0 45 +9 +12 1001.5 973.5
09 24.05 З 3 50 км 8/8 1000 м
[Cu med, cong]
+10.4 -2.8 39 +9 +10 1002.0 974.0
12 24.05 С 5 50 км 3/0
[Ac lent]
+9.9 -1.4 45 +7 +8 1003.1 975.1 +12.1
15 24.05 штиль 0 50 км 3/0
[Ac lent]
+2.2 0.0 85 +1 +1 1005.0 976.2
18 24.05 штиль 0 50 км ясно -2.2 -2.8 96 -4 -4 1006.7 977.3
21 24.05 штиль 0 50 км 4/0
[Cc]
-0.6 -2.1 90 -2 -1 1007.1 977.9
00 25.05 СЗ 5 50 км 10/0
[Ac As]
+5.4 -0.7 65 +1 +2 1007.4 978.8 -2.5
03 25.05 С 5 50 км 10/4 1000 м
[Sc Ac As]
+7.4 +1.5 66 +4 +5 1008.7 980.2
06 25.05 СЗ 7-10
{10}
50 км 10/6 1000 м
[Sc Ac lent]
+8.2 -0.5 54 +5 +5 1009.7 981.3
09 25.05 СВ 3
{10}
50 км 10/6 1000 м
[Sc Ac lent]
+8.0 +1.4 63 +6 +6 1011.8 983.3
12 25.05 штиль 0 50 км 10/8 1000 м
[Sc Ac As]
+6.7 +1.8 71 +6 +6 1013.9 985.2 +8.4
15 25.05 штиль 0 50 км 8/0
[Ac lent]
+2.6 +2.1 97 +1 +1 1015.7 986.5

 

Местоположение метеостанции Шелагонцы (Якутия, Россия): широта 66.25 долгота 114.20 высота над уровнем моря 236 м.

В архиве по умолчанию представлена погода в Шелагонцах за последнюю неделю. Архивные данные за месяц целиком и за предыдущие месяцы, начиная с января 2011 года, Вы можете получить, выбрав интересующий диапазон дат из раскрывающегося списка и нажав кнопку "Ввод!".


*Определитесь, кто Вы:
робот инопланетянин человек

Внимание! Время в таблицах - всемирное. Для получения местного времени необходимо прибавить поправку, которая равна 9 ч.

Смотрите также архив погоды в соседних городах и на ближайших метеорологических станциях:

Погода в Полярном (Якутия, Россия) (96 км)
Погода в Айхале (Якутия, Россия) (129 км)
Погода в Эйке (Якутия, Россия) (146 км)
Погода в Хабардино (Якутия, Россия) (200 км)
Погода в Чумпуруке (Якутия, Россия) (257 км)
Погода в Оленеке (Якутия, Россия) (262 км)
Погода в Ярольине (Якутия, Россия) (269 км)
Погода в Сухане (Якутия, Россия) (316 км)
Погода в Чернышевском (Якутия, Россия) (368 км)
Погода в Нюрбе (Якутия, Россия) (383 км)

Пояснения к столбцам:

Ветер - указаны скорость ветра в м/с - средняя за 10 мин, порывы в срок и между сроками (в фигурных скобках) и направление, откуда дует ветер: С - северный, СВ - северо-восточный, В - восточный, ЮВ - юго-восточный, Ю - южный, ЮЗ - юго-западный, З - западный, СЗ - северо-западный.
Видимость - горизонтальная дальность видимости в метрах или километрах. При видимости от 1 до 10 км при отсутствии осадков обычно наблюдается дымка, при ухудшении видимости до 1 км и менее - туман. В сухую погоду видимость может ухудшаться дымом, пылью или мглою.
Явления - указаны атмосферные явления, наблюдавшиеся в срок или в последний час перед сроком; фигурными скобками обозначены явления, наблюдавшиеся между сроками (за 1-3 часа до срока); квадратными скобками обозначены град или гололедные отложения с указанием их диаметра в мм.
Облачность - указаны через наклонную черту общая и нижняя облачность в баллах и высота нижней границы облаков в метрах; квадратными скобками обозначены формы облаков: Ci - перистые, Cs - перисто-слоистые, Cc - перисто-кучевые, Ac - высококучевые, As - высокослоистые, Sc - слоисто-кучевые, Ns - слоисто-дождевые, Cu - кучевые, Cb - кучево-дождевые. Подробнее классификацию облаков см. в Атласе облаков (PDF).
T - Температура воздуха - температура, измеренная на высоте 2 м над землей.
Td - Температура точки росы - температура, при понижении до которой содержащийся в воздухе водяной пар достигнет насыщения.
f - Относительная влажность воздуха - влажноcть воздуха, измеренная на высоте 2 м над землей.
Te - Эффективная температура - температура, которую ощущает одетый по сезону человек в тени. Характеристика душности погоды. При расчете учитывается влияние влажности воздуха и скорости ветра на теплоощущения человека.
Tes - Эффективная температура на солнце - температура, которую ощущает человек, с поправкой на солнечный нагрев. Характеристика знойности погоды. Зависит от высоты солнца над горизонтом, облачности и скорости ветра. Ночью, в пасмурную погоду, а также при ветре 12 м/с и более поправка равна нулю.
P - Атмосферное давление - приведенное к уровню моря атмосферное давление.
Po - Атмосферное давление - измеренное на уровне метеостанции атмосферное давление.
Tmin - Минимальная температура - минимум температуры воздуха на высоте 2 м над землей.
Tmax - Максимальная температура - максимум температуры воздуха на высоте 2 м над землей.
R - Количество осадков - Количество выпавших осадков за период времени, мм. При наведении курсора мыши на число - период времени, за который выпало указанное количество осадков.
R24 - Количество осадков - Количество выпавших осадков за 24 часа, мм.
S - Снежный покров - Высота снежного покрова, см. При наведении курсора мыши на число - состояние снежного покрова и степень покрытия местности в баллах.